Regional Weather Roundup
Issued by NWS

Home | Current Version | Previous Version | Graphics & Text | Print | Product List | Glossary Off
Versions: 1 2 3 4 5 6 7 8 9 10 11 12 13 14 15 16 17 18 19 20 21 22 23 24 25 26 27 28 29 30 31 32 33 34 35 36 37 38 39 40 41 42 43 44 45 46 47 48 49 50

000
ASUS43 KDMX 250107
RWRIA

WEATHER ROUNDUP FOR IOWA
NATIONAL WEATHER SERVICE DES MOINES IA
800 PM CDT THU JUL 24 2014

NOTE: "FAIR" INDICATES FEW OR NO CLOUDS BELOW 12,000 FEET WITH NO
SIGNIFICANT WEATHER AND/OR OBSTRUCTIONS TO VISIBILITY.

* - THESE STATIONS ARE NOT NWS STATIONS...THUS NOT UNDER NWS
QUALITY CONTROL.  THEY ALSO DO NOT REPORT WEATHER SUCH
AS PRECIPITATION OR FOG.

IAZ001>003-012>014-020>022-031>034-043>046-250200-
   NORTHWEST IOWA

CITY           SKY/WX    TMP DP  RH WIND       PRES   REMARKS
CARROLL *      CLEAR     70  63  78 S18G26    29.91F
CHEROKEE *     PTCLDY    70  63  78 S17       29.89F
DENISON *      CLEAR     70  63  78 S16G24    29.92F
LE MARS *      CLEAR     72  63  73 S16G23    29.88F
ORANGE CITY *  CLEAR     72  61  68 S15G21    29.88F
SHELDON *      CLEAR     66  63  88 S12       29.87F
SIOUX CITY     CLEAR     76  63  64 S15G24    29.89F
SPENCER        MOCLDY    68  60  75 S15G21    29.89F
STORM LAKE *   CLEAR     68  63  83 S20G30    29.90F
$$

IAZ055>058-069>071-079>083-090>094-250200-
   SOUTHWEST IOWA

CITY           SKY/WX    TMP DP  RH WIND       PRES   REMARKS
ATLANTIC *     PTCLDY    75  63  64 SE8G16    30.00F
AUDUBON *      CLEAR     72  66  83 SE9G16    29.99F
CLARINDA *     CLEAR     77  63  61 E7        30.05R
COUNCIL BLFS * CLEAR     75  64  69 SE12      29.98F
CRESTON *      PTCLDY    72  63  73 E9G15     30.06F
HARLAN  *      CLOUDY    73  63  68 SE13G21   30.01F
LAMONI         PTCLDY    73  60  63 VRB3      30.06R
RED OAK *      CLEAR     77  63  61 SE9G15    30.02S
SHENANDOAH *   CLEAR     75  63  64 E8        30.02R
$$

IAZ047>049-059>061-072>074-084-250200-
   CENTRAL IOWA

CITY           SKY/WX    TMP DP  RH WIND       PRES   REMARKS
AMES           CLOUDY    67  65  93 S22G30    29.88F
ANKENY *       CLEAR     70  64  83 S8        30.00F
CHARITON *     PTCLDY    72  64  78 E5        30.09S
DES MOINES     CLOUDY    73  63  70 S12       30.01F
GRINNELL*      LGT RAIN  68  63  83 S10       29.98F
KNOXVILLE *    CLEAR     73  63  68 SE6       30.05F
MARSHALLTOWN   LGT RAIN  69  63  81 S12G21    29.91F
PELLA *        LGT RAIN  72  64  78 CALM      30.07F
PERRY *          N/A     68  64  88 S16       29.93F
$$

IAZ004>006-015-016-023>025-035-036-250200-
   NORTH CENTRAL IOWA

CITY           SKY/WX    TMP DP  RH WIND       PRES   REMARKS
ALGONA *       CLEAR     66  59  77 S10G20    29.90S
CLARION *      CLEAR     66  63  88 S12G20    29.87F
ESTHERVILLE    PTCLDY    64  57  78 S14       29.90F
FORT DODGE *   CLOUDY    66  61  82 SW13G22   29.89R
MASON CITY     CLOUDY    68  61  78 SE10      29.94F
FOREST CITY *  CLEAR     68  63  83 SE12      29.92F
IOWA FALLS *     N/A     68  63  83 SE10      29.91F
$$

IAZ007>011-017>019-026>030-037>042-050>054-066-250200-
   NORTHEAST IOWA

CITY           SKY/WX    TMP DP  RH WIND       PRES   REMARKS
CEDAR RAPIDS   CLOUDY    70  62  76 S8        30.04F
CHARLES CITY * CLEAR     72  59  64 SW14      29.96F
CLINTON *      CLOUDY    70  59  68 S3        30.10R
DECORAH *      CLEAR     72  59  64 S12       29.96F
DUBUQUE        CLOUDY    69  60  73 S8        30.04F
MONTICELLO *   CLEAR     72  63  73 S6        30.03F
OELWEIN *      CLEAR     72  61  68 S9        30.00F
WATERLOO       CLOUDY    71  61  70 S7        29.98F
$$

IAZ064-065-067-068-078-250200-
   EAST CENTRAL IOWA

CITY           SKY/WX    TMP DP  RH WIND       PRES   REMARKS
DAVENPORT      CLOUDY    69  59  70 W6        30.08S
IOWA CITY      CLOUDY    72  62  71 SW5       30.07F
MT. PLEASANT * CLOUDY    72  63  73 CALM      30.09R
MUSCATINE *    PTCLDY    73  61  64 CALM      30.07R
QUAD CITIES    CLOUDY    71  59  65 SW3       30.07S
$$

IAZ062-063-075>077-085>089-095>099-250200-
   SOUTHEAST IOWA

CITY           SKY/WX    TMP DP  RH WIND       PRES   REMARKS
BURLINGTON     CLOUDY    69  61  75 NW7       30.10R
FAIRFIELD *    PTCLDY    70  64  83 CALM      30.10S
FORT MADISON * PTCLDY    72  61  68 NW5       30.11R
KEOKUK *       CLEAR     72  61  68 NW5       30.08R
OSKALOOSA *      N/A     70  64  83 NW3       30.11R
CENTERVILLE *  CLEAR     70  64  83 N6        30.13R
OTTUMWA        CLOUDY    70  63  78 NW7       30.11R
WASHINGTON *   CLEAR     70  64  83 W3        30.09F
$$

ABBREVIATIONS USED IN REMARKS
   TC - TEMPERATURES IN CELSIUS
  WCI - WIND CHILL INDEX
   HX - HEAT INDEX
  VSB - VISIBILITY
$$



USA.gov is the U.S. government's official web portal to all federal, state and local government web resources and services.